Regional Weather Roundup
Issued by NWS Cleveland, OH

Home | Current Version | Previous Version | Text Only | Print | Product List | Glossary Off
Versions: 1 2 3 4 5 6 7 8 9 10 11 12 13 14 15 16 17 18 19 20 21 22 23 24 25 26 27 28 29 30 31 32 33 34 35 36 37 38 39 40 41 42 43 44 45 46 47 48 49 50

000
ASUS41 KCLE 312300
RWRCLE
OHIO REGIONAL WEATHER ROUNDUP
NATIONAL WEATHER SERVICE WILMINGTON, OH
600 PM EST SAT JAN 31 2015

NOTE: "FAIR" INDICATES FEW OR NO CLOUDS BELOW 12,000 FEET WITH NO
SIGNIFICANT WEATHER AND/OR OBSTRUCTIONS TO VISIBILITY.

OHZ001>008-015>018-024>027-034-035-043-044-010000-
   NORTHWEST OHIO

CITY           SKY/WX    TMP DP  RH WIND       PRES   REMARKS
DEFIANCE       CLOUDY    34  25  69 SW6       30.20S WCI  29
FINDLAY        MOCLDY    31  24  75 S9        30.21S WCI  23
TOLEDO EXPRESS MOCLDY    32  23  69 S6        30.20S WCI  26
TOLEDO EXEC    MOCLDY    32  24  72 S7        30.22S WCI  26
LIMA           CLOUDY    35  24  64 SW9       30.20S WCI  28
$$

OHZ009>014-019>023-028>033-038-089-010000-
   NORTHEAST OHIO

CITY           SKY/WX    TMP DP  RH WIND       PRES   REMARKS
CLE-HOPKINS    CLOUDY    30  18  60 SW12      30.25R WCI  20
CLE-LAKEFRONT  CLOUDY    31  19  61 S12       30.22S WCI  22
CUY CO. ARPT   CLOUDY    30  19  64 SW9       30.22R WCI  22
LORAIN-ELYRIA  CLOUDY    29  20  69 SW10      30.23R WCI  20
ASHTABULA      CLEAR     25  14  63 S7        30.22R WCI  17
AKRON-CANTON   MOCLDY    27  16  63 SW8       30.23R WCI  19
WOOSTER        NOT AVBL
MANSFIELD      MOCLDY    27  19  72 S9        30.21S WCI  18
YOUNGSTOWN     MOCLDY    25  14  63 SW8       30.22S WCI  16
$$

OHZ042-051>053-060>062-070>072-077>081-010000-
  SOUTHWEST OHIO

CITY           SKY/WX    TMP DP  RH WIND       PRES   REMARKS
CINC-COVINGTON CLOUDY    37  19  48 CALM      30.26S
CINC-LUNKEN    CLOUDY    35  20  54 SW5       30.29R
HAMILTON       CLOUDY    37  21  52 SW5       30.28R
DAYTON         NOT AVBL
WRIGHT-PAT AFB NOT AVBL
DAYTON GENERAL CLOUDY    35  21  56 SW6       30.24R
WILMINGTON     CLOUDY    32  22  66 SW6       30.25R WCI  26
$$

OHZ036-037-039>041-045>050-054>059-063>069-073>076-082>088-010000-
  CENTRAL AND SOUTHEAST OHIO

CITY           SKY/WX    TMP DP  RH WIND       PRES   REMARKS
COLUMBUS       CLOUDY    32  22  66 S5        30.25F WCI  27
OSU AIRPORT    CLOUDY    32  21  64 S6        30.24S WCI  26
BOLTON FIELD   CLEAR     32  25  74 S6        30.25S WCI  26
RICKENBACK AFB NOT AVBL
NEWARK         MOCLDY    32  21  64 SW5       30.25R WCI  27
MARION         MOCLDY    28  20  71 SW7       30.24R WCI  21
LANCASTER      CLOUDY    33  22  63 SW5       30.26S WCI  29
ZANESVILLE     MOCLDY    30  16  56 CALM      30.26S
NEW PHILLY     MOCLDY    30  16  56 SW5       30.26S WCI  25
$$



USA.gov is the U.S. government's official web portal to all federal, state and local government web resources and services.